Pampa, TX

11:26 PM CDT on September 19, 2017 (GMT -0500)
Perry Lefors

Weather History for KPPA - August, 2013

Change the Weather History Date:

Wednesday, August 7, 2013

  Actual Average Record
Temperature  
Mean Temperature 77 °F -  
Max Temperature 90 °F 90 °F 104 °F (1964)
Min Temperature 64 °F 65 °F 52 °F (1990)
Cooling Degree Days 12    
Growing Degree Days 27 (Base 50)    
Moisture  
Dew Point 62 °F    
Average Humidity 63    
Maximum Humidity 93    
Minimum Humidity 41    
Precipitation  
Precipitation 0.00 in - - ()
Sea Level Pressure  
Sea Level Pressure 29.98 in    
Wind  
Wind Speed 11 mph (East)    
Max Wind Speed 24 mph    
Max Gust Speed 45 mph    
Visibility 10 miles    
Events Rain , Thunderstorm    
Averages and records for this station are not official NWS values.
T = Trace of Precipitation, MM = Missing Value Source: NWS Daily Summary

Daily Weather History Graph

Daily Weather History Graph

Search for Another Location

Airport or City:

Trip Planner

Search our weather history database for the weather conditions in past years. The results will help you decide how hot, cold, wet, or windy it might be!

Date:

Astronomy

Aug. 07, 2013 Rise Set
Actual Time 6:57 AM CDT 8:41 PM CDT
Civil Twilight 6:29 AM CDT 9:09 PM CDT
Nautical Twilight 5:56 AM CDT 9:42 PM CDT
Astronomical Twilight 5:20 AM CDT 10:17 PM CDT
Moon 7:43 AM CDT (8/7) 8:55 PM CDT (8/7)
Length of Visible Light 14h 39m
Length of Day
13h 44m
New Moon, 1% of the Moon is Illuminated
Aug 7
New Moon
Aug 14
First Quarter
Aug 20
Full
Aug 28
Last Quarter
Sep 5
New

Hourly Weather History & Observations

Time (CDT) Temp. Heat Index Dew Point Humidity Pressure Visibility Wind Dir Wind Speed Gust Speed Precip Events Conditions
12:15 AM 73.0 °F - 60.4 °F 65% 30.05 in 10.0 mi NW 10.4 mph 44.9 mph N/A   Mostly Cloudy
12:35 AM 68.5 °F - 61.9 °F 79% 30.03 in 4.0 mi NE 13.8 mph - N/A Rain , Thunderstorm Thunderstorms and Rain
12:55 AM 67.6 °F - 62.6 °F 84% 30.01 in 10.0 mi ENE 16.1 mph - N/A Rain , Thunderstorm Light Thunderstorms and Rain
1:15 AM 68.5 °F - 61.9 °F 79% 30.08 in 10.0 mi Calm Calm - N/A Rain , Thunderstorm Thunderstorms and Rain
1:35 AM 66.6 °F - 62.6 °F 87% 29.99 in 5.0 mi ENE 20.7 mph 25.3 mph N/A Rain , Thunderstorm Thunderstorms and Rain
1:55 AM 67.1 °F - 62.1 °F 84% 29.95 in 10.0 mi ENE 21.9 mph 25.3 mph N/A   Clear
2:15 AM 68.0 °F - 61.9 °F 81% 29.94 in 10.0 mi ENE 12.7 mph - N/A   Clear
2:35 AM 68.0 °F - 61.7 °F 80% 29.94 in 10.0 mi ENE 11.5 mph - N/A   Clear
2:55 AM 68.2 °F - 60.8 °F 77% 29.94 in 10.0 mi East 9.2 mph - N/A   Clear
3:15 AM 67.5 °F - 61.7 °F 82% 29.94 in 10.0 mi ESE 8.1 mph - N/A   Clear
3:35 AM 68.0 °F - 61.3 °F 79% 29.95 in 10.0 mi SE 11.5 mph - N/A   Clear
3:55 AM 68.5 °F - 61.3 °F 78% 29.95 in 10.0 mi ESE 11.5 mph - N/A   Clear
4:15 AM 69.8 °F - 60.8 °F 73% 29.94 in 10.0 mi ESE 13.8 mph 19.6 mph N/A   Clear
4:35 AM 70.0 °F - 61.0 °F 73% 29.94 in 10.0 mi ESE 12.7 mph - N/A   Clear
4:55 AM 69.3 °F - 61.2 °F 75% 29.95 in 10.0 mi SE 11.5 mph - N/A   Clear
5:15 AM 68.9 °F - 61.2 °F 76% 29.95 in 10.0 mi SE 10.4 mph - N/A   Clear
5:35 AM 68.2 °F - 61.2 °F 78% 29.95 in 10.0 mi SE 6.9 mph - N/A   Clear
5:55 AM 67.1 °F - 61.2 °F 81% 29.96 in 10.0 mi SE 6.9 mph - N/A   Clear
6:15 AM 66.9 °F - 61.3 °F 82% 29.96 in 10.0 mi SSE 6.9 mph - N/A   Clear
6:35 AM 65.8 °F - 61.3 °F 85% 29.97 in 10.0 mi NW 4.6 mph - N/A   Clear
6:55 AM 67.1 °F - 61.7 °F 83% 29.99 in 10.0 mi WNW 4.6 mph - N/A   Clear
7:15 AM 66.7 °F - 61.7 °F 84% 29.99 in 10.0 mi NNW 3.5 mph - N/A   Clear
7:35 AM 66.6 °F - 62.2 °F 86% 30.00 in 10.0 mi North 6.9 mph - N/A   Clear
7:55 AM 67.6 °F - 62.2 °F 83% 29.99 in 10.0 mi North 3.5 mph - N/A   Clear
8:15 AM 70.0 °F - 63.0 °F 78% 29.99 in 10.0 mi North 5.8 mph - N/A   Clear
8:35 AM 71.2 °F - 63.1 °F 75% 30.00 in 10.0 mi North 10.4 mph - N/A   Clear
8:55 AM 72.5 °F - 63.3 °F 73% 30.00 in 10.0 mi North 9.2 mph - N/A   Clear
9:15 AM 73.4 °F - 63.9 °F 72% 30.00 in 10.0 mi North 13.8 mph - N/A   Clear
9:35 AM 75.0 °F - 63.3 °F 67% 30.01 in 10.0 mi NNE 11.5 mph - N/A   Clear
9:55 AM 76.1 °F - 63.9 °F 66% 30.01 in 10.0 mi NNE 10.4 mph - N/A   Clear
10:15 AM 77.7 °F - 62.6 °F 60% 30.01 in 10.0 mi NNE 13.8 mph - N/A   Clear
10:35 AM 78.4 °F - 63.5 °F 60% 30.01 in 10.0 mi North 12.7 mph - N/A   Clear
10:55 AM 79.0 °F - 63.3 °F 59% 30.02 in 10.0 mi NE 9.2 mph - N/A   Clear
11:15 AM 79.9 °F - 63.1 °F 56% 30.02 in 10.0 mi NE 10.4 mph - N/A   Clear
11:35 AM 81.5 °F 82.8 °F 63.5 °F 54% 30.03 in 10.0 mi ENE 12.7 mph 18.4 mph N/A   Clear
11:55 AM 81.5 °F 82.7 °F 62.6 °F 53% 30.03 in 10.0 mi ENE 8.1 mph 16.1 mph N/A   Clear
12:15 PM 83.5 °F 84.7 °F 63.9 °F 51% 30.03 in 10.0 mi East 9.2 mph - N/A   Clear
12:35 PM 83.3 °F 84.3 °F 63.1 °F 50% 30.04 in 10.0 mi NE 9.2 mph - N/A   Clear
12:55 PM 84.4 °F 85.9 °F 64.2 °F 51% 30.03 in 10.0 mi ESE 11.5 mph - N/A   Scattered Clouds
1:15 PM 84.2 °F 85.2 °F 63.1 °F 49% 30.03 in 10.0 mi ESE 8.1 mph - N/A   Scattered Clouds
1:35 PM 85.6 °F 86.6 °F 63.1 °F 47% 30.02 in 10.0 mi SSE 6.9 mph - N/A   Clear
1:55 PM 86.2 °F 86.6 °F 61.9 °F 44% 30.02 in 10.0 mi East 8.1 mph - N/A   Clear
2:15 PM 87.1 °F 87.8 °F 62.8 °F 44% 30.01 in 10.0 mi East 9.2 mph - N/A   Clear
2:35 PM 86.0 °F 86.8 °F 63.0 °F 46% 30.01 in 10.0 mi East 9.2 mph - N/A   Scattered Clouds
2:55 PM 85.8 °F 86.6 °F 63.1 °F 46% 30.01 in 10.0 mi ESE 11.5 mph 16.1 mph N/A   Scattered Clouds
3:15 PM 86.5 °F 87.6 °F 63.3 °F 46% 29.99 in 10.0 mi ENE 11.5 mph 17.3 mph N/A   Clear
3:35 PM 86.9 °F 87.8 °F 63.3 °F 45% 29.99 in 10.0 mi East 12.7 mph 17.3 mph N/A   Clear
3:55 PM 88.0 °F 88.4 °F 62.1 °F 42% 29.99 in 10.0 mi East 12.7 mph 17.3 mph N/A   Clear
4:15 PM 89.1 °F 89.6 °F 62.2 °F 41% 29.97 in 10.0 mi East 11.5 mph 18.4 mph N/A   Scattered Clouds
4:35 PM 89.8 °F 90.7 °F 63.1 °F 41% 29.97 in 10.0 mi ESE 17.3 mph - N/A   Scattered Clouds
4:55 PM 88.5 °F 88.9 °F 62.1 °F 41% 29.96 in 10.0 mi ESE 11.5 mph - N/A   Mostly Cloudy
5:15 PM 87.1 °F 87.8 °F 62.8 °F 44% 29.96 in 10.0 mi SE 10.4 mph - N/A   Scattered Clouds
5:35 PM 88.7 °F 89.1 °F 62.4 °F 41% 29.95 in 10.0 mi ESE 13.8 mph 19.6 mph N/A   Scattered Clouds
5:55 PM 88.2 °F 88.4 °F 61.7 °F 41% 29.94 in 10.0 mi ESE 16.1 mph 19.6 mph N/A   Clear
6:15 PM 87.8 °F 87.9 °F 61.5 °F 41% 29.94 in 10.0 mi SE 15.0 mph - N/A   Clear
6:35 PM 87.4 °F 87.4 °F 61.0 °F 41% 29.93 in 10.0 mi SE 15.0 mph - N/A   Clear
6:55 PM 86.0 °F 85.9 °F 60.3 °F 42% 29.94 in 10.0 mi SE 12.7 mph 16.1 mph N/A   Clear
7:15 PM 86.0 °F 85.7 °F 59.9 °F 41% 29.93 in 10.0 mi SE 13.8 mph - N/A   Clear
7:35 PM 84.6 °F 84.2 °F 59.0 °F 42% 29.92 in 10.0 mi SE 10.4 mph - N/A   Clear
7:55 PM 83.7 °F 83.4 °F 59.2 °F 43% 29.92 in 10.0 mi SE 9.2 mph - N/A   Clear
8:15 PM 82.4 °F 82.7 °F 60.1 °F 47% 29.94 in 10.0 mi SE 5.8 mph - N/A   Clear
8:35 PM 81.1 °F 81.8 °F 60.4 °F 49% 29.96 in 10.0 mi SE 6.9 mph - N/A   Clear
8:55 PM 80.8 °F 81.5 °F 60.4 °F 50% 29.96 in 10.0 mi SE 9.2 mph - N/A   Scattered Clouds
9:15 PM 80.6 °F 81.4 °F 60.4 °F 50% 29.96 in 10.0 mi SE 9.2 mph - N/A   Scattered Clouds
9:35 PM 80.4 °F 81.3 °F 60.6 °F 51% 29.96 in 10.0 mi SE 8.1 mph - N/A   Mostly Cloudy
9:55 PM 80.6 °F 81.5 °F 60.8 °F 51% 29.96 in 10.0 mi ESE 5.8 mph - N/A   Overcast
10:15 PM 80.1 °F 81.1 °F 61.5 °F 53% 29.96 in 10.0 mi SE 3.5 mph - N/A Thunderstorm Overcast
10:35 PM 76.8 °F - 64.8 °F 66% 29.99 in 7.0 mi Calm Calm - N/A Rain , Thunderstorm Light Thunderstorms and Rain
10:55 PM 70.7 °F - 64.6 °F 81% 30.02 in 10.0 mi NNW 24.2 mph 32.2 mph N/A Thunderstorm Thunderstorm
11:15 PM 65.7 °F - 63.0 °F 91% 30.02 in 10.0 mi NNW 20.7 mph 29.9 mph N/A   Overcast
11:35 PM 65.1 °F - 62.8 °F 92% 30.00 in 10.0 mi NNW 15.0 mph 25.3 mph N/A   Scattered Clouds
11:55 PM 64.6 °F - 62.6 °F 93% 30.00 in 10.0 mi North 20.7 mph 26.5 mph N/A   Mostly Cloudy